GJ7DNI-13 Weather Reports


Display with metric or nautical units.
time (UTC)temp
F
wind
direction
speed
MPH
gust
MPH
rain 1hr
in
rain 24hr
in
rain mn
in
humidity
%
barometer
mb
20260510093444 58 52 15.0 26.0 0.00 0.14 0.00 70 1010.2
20260510092944 58 359 14.0 31.0 0.00 0.14 0.00 70 1010.2
20260510092444 58 47 13.0 22.0 0.00 0.14 0.00 70 1010.1
20260510091944 58 47 12.0 24.0 0.00 0.14 0.00 70 1010.2
20260510091444 58 30 12.0 23.0 0.00 0.14 0.00 71 1010.2
20260510090944 58 25 14.0 24.0 0.00 0.14 0.00 71 1010.2
20260510090444 58 45 13.0 24.0 0.00 0.14 0.00 71 1010.1
20260510085946 58 48 13.0 22.0 0.00 0.14 0.00 71 1010.1
20260510085444 58 27 13.0 24.0 0.00 0.14 0.00 70 1010.2
20260510084944 58 23 13.0 23.0 0.00 0.14 0.00 70 1010.2
20260510084444 58 54 13.0 23.0 0.00 0.14 0.00 71 1010.1
20260510083944 58 39 13.0 20.0 0.00 0.14 0.00 71 1010.1
20260510083444 58 21 15.0 24.0 0.00 0.14 0.00 71 1010.1
20260510082944 57 59 15.0 26.0 0.00 0.14 0.00 71 1010.2
20260510082444 57 13 16.0 25.0 0.00 0.14 0.00 71 1010.1
20260510081944 57 47 15.0 30.0 0.00 0.14 0.00 71 1010.2
20260510081444 57 28 15.0 25.0 0.00 0.14 0.00 72 1010.2
20260510080944 57 349 15.0 25.0 0.00 0.14 0.00 72 1010.2
20260510080444 56 60 14.0 23.0 0.00 0.14 0.00 73 1010.2
20260510075944 56 48 13.0 26.0 0.00 0.14 0.00 73 1010.2
20260510075444 56 59 13.0 23.0 0.00 0.14 0.00 74 1010.3
20260510074944 56 98 15.0 26.0 0.00 0.14 0.00 74 1010.2
20260510074444 56 31 14.0 23.0 0.00 0.14 0.00 74 1010.3
20260510073944 56 27 13.0 27.0 0.00 0.14 0.00 75 1010.3
20260510073444 55 37 13.0 28.0 0.00 0.14 0.00 76 1010.2
20260510072944 55 32 14.0 27.0 0.00 0.14 0.00 77 1010.2
20260510072444 55 38 15.0 28.0 0.00 0.14 0.00 78 1010.3
20260510071944 55 39 15.0 25.0 0.00 0.14 0.00 79 1010.3
20260510071444 55 34 14.0 25.0 0.00 0.14 0.00 80 1010.3
20260510070944 55 77 14.0 25.0 0.00 0.14 0.00 80 1010.4
20260510070444 55 62 15.0 24.0 0.00 0.14 0.00 80 1010.3
20260510065946 55 81 13.0 25.0 0.00 0.14 0.00 81 1010.4
20260510065444 55 71 12.0 24.0 0.00 0.14 0.00 81 1010.4
20260510064944 55 39 12.0 22.0 0.00 0.14 0.00 81 1010.4
20260510064445 55 48 12.0 24.0 0.00 0.14 0.00 81 1010.3
20260510063944 55 52 13.0 24.0 0.00 0.14 0.00 81 1010.2
20260510063444 55 59 12.0 23.0 0.00 0.14 0.00 81 1010.3
20260510062945 55 15 12.0 24.0 0.00 0.14 0.00 81 1010.2
20260510062444 55 49 13.0 25.0 0.00 0.14 0.00 82 1010.1
20260510061947 55 18 13.0 25.0 0.00 0.14 0.00 82 1010.0
20260510061444 55 349 11.0 27.0 0.00 0.14 0.00 82 1010.0
20260510060945 55 19 11.0 22.0 0.00 0.14 0.00 83 1010.1
20260510060445 55 50 12.0 21.0 0.00 0.14 0.00 83 1010.0
20260510055947 55 8 11.0 24.0 0.00 0.14 0.00 83 1009.9
20260510055445 55 29 10.0 25.0 0.00 0.14 0.00 83 1010.0
20260510054945 55 48 11.0 18.0 0.00 0.14 0.00 83 1009.8
20260510054445 55 28 12.0 26.0 0.00 0.14 0.00 83 1009.7
20260510053945 55 54 12.0 24.0 0.00 0.14 0.00 83 1009.7
20260510053445 55 98 12.0 24.0 0.00 0.14 0.00 83 1009.7
20260510052945 55 55 12.0 22.0 0.00 0.14 0.00 83 1009.6
20260510052445 55 46 12.0 20.0 0.00 0.14 0.00 83 1009.6
20260510051945 55 39 11.0 21.0 0.00 0.14 0.00 83 1009.7
20260510051445 55 13 11.0 20.0 0.00 0.14 0.00 83 1009.9
20260510050945 55 23 12.0 22.0 0.00 0.14 0.00 83 1009.8
20260510050445 55 59 12.0 18.0 0.00 0.14 0.00 84 1009.9
20260510045945 55 14 12.0 22.0 0.00 0.14 0.00 84 1009.9
20260510045445 55 33 11.0 22.0 0.00 0.14 0.00 84 1009.9
20260510044945 55 32 11.0 20.0 0.00 0.14 0.00 84 1009.9
20260510044445 55 62 12.0 24.0 0.00 0.14 0.00 84 1009.9
20260510043945 55 14 11.0 21.0 0.00 0.14 0.00 84 1009.9
20260510043445 55 8 11.0 26.0 0.00 0.14 0.00 84 1010.0
20260510042945 55 59 11.0 22.0 0.00 0.14 0.00 84 1009.9
20260510042445 55 59 11.0 23.0 0.00 0.14 0.00 84 1010.0
20260510041945 55 42 11.0 19.0 0.00 0.14 0.00 84 1010.0
20260510041445 55 56 11.0 21.0 0.00 0.14 0.00 84 1010.0
20260510040945 55 354 11.0 20.0 0.00 0.14 0.00 84 1009.9
20260510040445 55 50 9.0 16.0 0.00 0.14 0.00 84 1009.8
20260510035945 55 57 9.0 18.0 0.00 0.14 0.00 84 1009.9
20260510035445 55 54 10.0 19.0 0.00 0.14 0.00 84 1009.9
20260510034945 55 23 11.0 18.0 0.00 0.14 0.00 84 1010.0
20260510034445 55 70 10.0 21.0 0.00 0.14 0.00 84 1010.0
20260510033945 55 45 10.0 15.0 0.00 0.14 0.00 84 1010.1
20260510033445 55 33 12.0 22.0 0.00 0.14 0.00 84 1010.1
20260510032945 55 24 11.0 22.0 0.00 0.14 0.00 84 1010.1
20260510032445 55 22 10.0 17.0 0.00 0.14 0.00 84 1010.1
20260510031945 55 28 11.0 20.0 0.00 0.14 0.00 83 1010.1
20260510031445 55 48 11.0 19.0 0.00 0.14 0.00 83 1010.1
20260510030945 55 54 11.0 19.0 0.00 0.14 0.00 83 1010.1
20260510030445 55 43 10.0 21.0 0.00 0.14 0.00 83 1010.1
20260510025945 55 53 10.0 18.0 0.00 0.14 0.00 83 1010.1
20260510025445 55 60 11.0 16.0 0.00 0.14 0.00 83 1010.1
20260510024945 55 85 11.0 21.0 0.00 0.14 0.00 83 1010.2
20260510024445 55 13 11.0 20.0 0.00 0.14 0.00 82 1010.1
20260510023945 55 80 10.0 20.0 0.00 0.14 0.00 82 1010.3
20260510023445 55 97 11.0 19.0 0.00 0.14 0.00 82 1010.2
20260510022945 55 81 11.0 22.0 0.00 0.14 0.00 83 1010.2
20260510022445 55 28 10.0 21.0 0.00 0.14 0.00 82 1010.3
20260510021945 55 112 11.0 18.0 0.00 0.14 0.00 82 1010.4
20260510021445 55 47 11.0 21.0 0.00 0.14 0.00 83 1010.4
20260510020945 55 100 10.0 20.0 0.00 0.14 0.00 82 1010.4
20260510020445 55 359 11.0 19.0 0.00 0.14 0.00 82 1010.5
20260510015945 55 45 11.0 22.0 0.00 0.14 0.00 82 1010.4
20260510015445 55 60 12.0 20.0 0.00 0.14 0.00 83 1010.4
20260510014945 55 44 12.0 19.0 0.00 0.14 0.00 82 1010.5
20260510014445 55 83 12.0 24.0 0.00 0.14 0.00 82 1010.6
20260510013945 55 33 12.0 20.0 0.00 0.14 0.00 82 1010.7
20260510013445 55 342 11.0 18.0 0.00 0.14 0.00 82 1010.8
20260510012945 55 39 11.0 24.0 0.00 0.14 0.00 82 1010.8
20260510012445 55 43 12.0 22.0 0.00 0.14 0.00 82 1010.9
20260510011945 55 69 13.0 20.0 0.00 0.14 0.00 82 1011.0
20260510011445 55 74 13.0 22.0 0.00 0.14 0.00 82 1011.0
20260510010945 55 70 12.0 21.0 0.00 0.14 0.00 82 1011.0
20260510010445 55 39 11.0 23.0 0.00 0.14 0.00 82 1011.1
20260510005945 55 9 11.0 22.0 0.00 0.14 0.00 83 1011.1
20260510005445 55 36 12.0 20.0 0.00 0.14 0.00 83 1011.1
20260510004945 55 92 12.0 22.0 0.00 0.14 0.00 83 1011.1
20260510004445 55 64 12.0 21.0 0.00 0.14 0.00 83 1011.1
20260510003945 55 52 12.0 24.0 0.00 0.14 0.00 83 1011.2
20260510003445 55 52 12.0 18.0 0.00 0.14 0.00 83 1011.2
20260510002945 55 31 12.0 22.0 0.00 0.14 0.00 83 1011.2
20260510002445 56 25 13.0 24.0 0.00 0.14 0.00 83 1011.3
20260510001945 56 31 12.0 23.0 0.00 0.14 0.00 82 1011.4
20260510001445 56 35 10.0 22.0 0.00 0.14 0.00 82 1011.5
20260510000945 56 40 10.0 20.0 0.00 0.14 0.00 82 1011.4
20260510000448 56 58 11.0 19.0 0.00 0.14 0.00 82 1011.5
20260509235945 56 33 11.0 17.0 0.00 0.14 0.00 82 1011.5
20260509235445 56 36 11.0 18.0 0.00 0.14 0.00 82 1011.5
20260509234945 56 4 10.0 21.0 0.00 0.14 0.00 82 1011.5
20260509234445 56 45 9.0 18.0 0.00 0.14 0.00 83 1011.5
20260509233945 56 31 10.0 19.0 0.00 0.14 0.00 83 1011.6
20260509233445 56 29 9.0 18.0 0.01 0.14 0.00 83 1011.8
20260509232945 56 43 9.0 17.0 0.01 0.14 0.00 83 1011.8
20260509232445 55 83 9.0 16.0 0.01 0.14 0.00 83 1011.8
20260509231945 55 47 9.0 15.0 0.01 0.14 0.00 84 1011.8
20260509231445 55 17 8.0 18.0 0.01 0.14 0.00 84 1011.8
20260509230945 55 41 9.0 18.0 0.01 0.14 0.00 84 1011.9
20260509230445 55 31 9.0 16.0 0.01 0.14 0.14 84 1011.8
20260509225945 55 359 8.0 19.0 0.01 0.14 0.14 84 1011.8
20260509225445 55 350 9.0 15.0 0.01 0.14 0.14 84 1011.7
20260509224945 55 39 8.0 16.0 0.02 0.14 0.14 84 1011.8
20260509224445 55 15 8.0 18.0 0.02 0.14 0.14 84 1012.0
20260509223945 56 40 7.0 14.0 0.02 0.14 0.14 84 1011.9
20260509223445 56 62 7.0 14.0 0.02 0.13 0.13 84 1011.7
20260509222945 55 22 7.0 17.0 0.02 0.13 0.13 84 1011.8
20260509222445 56 48 5.0 16.0 0.02 0.13 0.13 84 1011.8
20260509221945 56 79 6.0 12.0 0.03 0.13 0.13 84 1011.8
20260509221445 56 54 6.0 13.0 0.04 0.13 0.13 84 1011.9
20260509220945 56 55 5.0 10.0 0.05 0.13 0.13 84 1012.0
20260509220445 56 41 5.0 12.0 0.05 0.13 0.13 84 1012.1
20260509215945 56 29 4.0 10.0 0.07 0.13 0.13 84 1012.1
20260509215445 56 354 4.0 9.0 0.08 0.13 0.13 84 1012.1
20260509214945 56 43 4.0 9.0 0.08 0.12 0.12 84 1012.1
20260509214445 56 37 5.0 10.0 0.09 0.12 0.12 83 1012.2
20260509213945 56 91 7.0 11.0 0.11 0.12 0.12 83 1012.2
20260509213445 56 73 8.0 13.0 0.10 0.11 0.11 83 1012.2
20260509212945 56 54 8.0 16.0 0.11 0.11 0.11 83 1012.2
20260509212445 56 71 9.0 13.0 0.11 0.11 0.11 82 1012.1
20260509211945 56 58 9.0 15.0 0.10 0.10 0.10 82 1012.3
20260509211445 56 41 9.0 18.0 0.09 0.09 0.09 81 1012.5
20260509210945 56 62 9.0 19.0 0.08 0.08 0.08 81 1012.5
20260509210445 57 86 8.0 15.0 0.08 0.08 0.08 80 1012.6
20260509205945 57 82 8.0 15.0 0.06 0.06 0.06 79 1012.6
20260509205445 57 81 10.0 16.0 0.05 0.05 0.05 78 1012.4
20260509204946 58 54 11.0 19.0 0.04 0.04 0.04 77 1012.3
20260509204446 58 112 10.0 18.0 0.03 0.03 0.03 75 1012.1
20260509203946 59 73 11.0 23.0 0.01 0.01 0.01 73 1012.0
20260509203446 60 27 11.0 21.0 0.01 0.01 0.01 72 1011.9
20260509202946 60 34 10.0 20.0 0.00 0.00 0.00 71 1011.9
20260509202445 60 28 10.0 17.0 0.00 0.00 0.00 70 1011.8
20260509201946 60 21 10.0 20.0 0.00 0.00 0.00 69 1011.6
20260509201446 61 52 10.0 16.0 0.00 0.00 0.00 69 1011.5
20260509200946 61 50 9.0 17.0 0.00 0.00 0.00 69 1011.6
20260509200446 61 49 8.0 13.0 0.00 0.00 0.00 69 1011.6
20260509195946 61 14 8.0 14.0 0.00 0.00 0.00 68 1011.5
20260509195446 61 42 9.0 14.0 0.00 0.00 0.00 68 1011.5
20260509195423 72 75 8.0 15.0 0.00 0.10 0.07 54 1012.0
20260509195418 74 74 8.0 16.0 0.00 0.10 0.07 51 1012.1
20260509194946 62 52 9.0 19.0 0.00 0.00 0.00 68 1011.5
20260509194512 62 12 8.0 16.0 0.00 0.00 0.00 67 1011.3
20260509193946 62 64 8.0 14.0 0.00 0.00 0.00 67 1011.2
20260509193446 62 26 9.0 14.0 0.00 0.00 0.00 66 1011.3
20260509192946 63 29 8.0 19.0 0.00 0.00 0.00 66 1011.1
20260509192446 63 46 7.0 12.0 0.00 0.00 0.00 66 1011.1
20260509191946 63 33 7.0 13.0 0.00 0.00 0.00 65 1011.0
20260509191446 64 58 8.0 15.0 0.00 0.00 0.00 64 1011.0
20260509190946 64 9 8.0 17.0 0.00 0.00 0.00 64 1011.0
20260509190446 65 4 8.0 15.0 0.00 0.00 0.00 63 1011.0
20260509185946 65 11 7.0 13.0 0.00 0.00 0.00 62 1011.0
20260509185446 65 354 7.0 15.0 0.00 0.00 0.00 62 1010.9
20260509184946 66 15 8.0 14.0 0.00 0.00 0.00 62 1010.9
20260509184446 66 340 8.0 15.0 0.00 0.00 0.00 61 1010.9
20260509183946 66 43 7.0 16.0 0.00 0.00 0.00 61 1011.0
20260509183446 66 349 7.0 16.0 0.00 0.00 0.00 61 1010.9
20260509182946 67 359 8.0 15.0 0.00 0.00 0.00 61 1010.9
20260509182446 67 27 8.0 18.0 0.00 0.00 0.00 60 1010.8
20260509181946 67 14 7.0 14.0 0.00 0.00 0.00 60 1010.8
20260509181446 67 354 9.0 14.0 0.00 0.00 0.00 61 1010.8
20260509180946 68 52 8.0 16.0 0.00 0.00 0.00 60 1010.8
20260509180446 69 19 7.0 11.0 0.00 0.00 0.00 59 1010.9
20260509175946 68 50 7.0 14.0 0.00 0.00 0.00 59 1010.8
20260509175446 68 40 6.0 13.0 0.00 0.00 0.00 59 1010.8
20260509174946 69 34 6.0 14.0 0.00 0.00 0.00 58 1010.8
20260509174446 69 42 6.0 14.0 0.00 0.00 0.00 58 1010.8
20260509173946 68 24 8.0 14.0 0.00 0.00 0.00 59 1010.7
20260509173446 68 21 8.0 13.0 0.00 0.00 0.00 60 1010.8
20260509172946 68 9 8.0 16.0 0.00 0.00 0.00 58 1010.9
20260509172446 68 52 9.0 16.0 0.00 0.00 0.00 58 1010.9
20260509171946 68 51 10.0 17.0 0.00 0.00 0.00 59 1010.7
20260509171446 69 14 9.0 18.0 0.00 0.00 0.00 56 1010.7
20260509170946 69 39 8.0 15.0 0.00 0.00 0.00 57 1010.8
20260509170446 69 359 9.0 17.0 0.00 0.00 0.00 57 1010.8
20260509165946 69 39 9.0 17.0 0.00 0.00 0.00 57 1010.8
20260509165446 69 9 8.0 14.0 0.00 0.00 0.00 58 1010.7
20260509164946 68 10 9.0 18.0 0.00 0.00 0.00 58 1010.8
20260509164446 68 95 10.0 15.0 0.00 0.00 0.00 59 1010.8
20260509163946 68 354 10.0 18.0 0.00 0.00 0.00 59 1010.8
20260509163450 68 10 10.0 18.0 0.00 0.00 0.00 57 1010.8
20260509162946 68 33 9.0 18.0 0.00 0.00 0.00 58 1010.9
20260509162446 69 10 8.0 16.0 0.00 0.00 0.00 57 1010.9
20260509161946 69 48 8.0 12.0 0.00 0.00 0.00 57 1011.0
20260509161446 70 68 9.0 16.0 0.00 0.00 0.00 56 1011.0
20260509160946 68 13 9.0 18.0 0.00 0.00 0.00 58 1011.1
20260509160446 68 83 8.0 16.0 0.00 0.00 0.00 58 1011.1
20260509155946 69 54 8.0 18.0 0.00 0.00 0.00 58 1011.1
20260509155446 67 347 8.0 13.0 0.00 0.00 0.00 60 1011.2
20260509154946 66 10 8.0 17.0 0.00 0.00 0.00 60 1011.3
20260509154446 66 30 8.0 15.0 0.00 0.00 0.00 60 1011.4
20260509153946 66 41 8.0 14.0 0.00 0.00 0.00 60 1011.4
20260509153446 66 16 9.0 18.0 0.00 0.00 0.00 60 1011.4
20260509152946 67 100 9.0 16.0 0.00 0.00 0.00 58 1011.4
20260509152446 68 17 10.0 18.0 0.00 0.00 0.00 56 1011.3
20260509151946 69 101 9.0 15.0 0.00 0.00 0.00 55 1011.3
20260509151446 69 37 9.0 16.0 0.00 0.00 0.00 55 1011.2
20260509150946 69 334 9.0 18.0 0.00 0.00 0.00 54 1011.3
20260509150446 70 326 9.0 16.0 0.00 0.00 0.00 53 1011.2
20260509145946 71 28 10.0 19.0 0.00 0.00 0.00 53 1011.3
20260509145446 72 13 10.0 15.0 0.00 0.00 0.00 51 1011.3
20260509144946 72 52 10.0 16.0 0.00 0.00 0.00 52 1011.3
20260509144446 71 30 10.0 18.0 0.00 0.00 0.00 52 1011.5
20260509143946 70 51 9.0 15.0 0.00 0.00 0.00 53 1011.6
20260509143446 71 77 8.0 14.0 0.00 0.00 0.00 51 1011.7
20260509142946 71 46 9.0 16.0 0.00 0.00 0.00 51 1011.7
20260509142446 70 69 9.0 17.0 0.00 0.00 0.00 51 1011.6
20260509141946 71 24 9.0 14.0 0.00 0.00 0.00 51 1011.6
20260509141446 70 58 10.0 17.0 0.00 0.00 0.00 51 1011.6
20260509140946 70 43 10.0 17.0 0.00 0.00 0.00 50 1011.6
20260509140446 71 29 10.0 19.0 0.00 0.00 0.00 49 1011.6
20260509135946 70 64 11.0 20.0 0.00 0.00 0.00 52 1011.6
20260509135446 69 21 10.0 17.0 0.00 0.00 0.00 53 1011.7
20260509134946 68 105 10.0 20.0 0.00 0.00 0.00 53 1011.8
20260509134446 68 53 11.0 20.0 0.00 0.00 0.00 53 1011.8
20260509133946 69 28 11.0 20.0 0.00 0.00 0.00 53 1011.9
20260509133446 69 43 10.0 19.0 0.00 0.00 0.00 52 1011.9
20260509132946 70 46 9.0 22.0 0.00 0.00 0.00 50 1011.9
20260509132446 70 62 10.0 21.0 0.00 0.00 0.00 50 1011.9
20260509131946 71 14 11.0 17.0 0.00 0.00 0.00 50 1011.8
20260509131446 72 4 11.0 19.0 0.00 0.00 0.00 48 1011.7
20260509130946 70 73 11.0 18.0 0.00 0.00 0.00 50 1011.7
20260509130446 69 38 10.0 16.0 0.00 0.00 0.00 53 1011.7
20260509125946 67 85 10.0 18.0 0.00 0.00 0.00 54 1011.8
20260509124946 67 76 9.0 17.0 0.00 0.00 0.00 53 1012.0
20260509124446 68 95 8.0 14.0 0.00 0.00 0.00 54 1012.1
20260509123946 68 32 10.0 15.0 0.00 0.00 0.00 53 1012.1
20260509123446 69 54 10.0 17.0 0.00 0.00 0.00 52 1012.1
20260509122946 69 92 10.0 17.0 0.00 0.00 0.00 51 1011.9
20260509122446 69 343 11.0 18.0 0.00 0.00 0.00 50 1011.9
20260509121946 70 60 11.0 20.0 0.00 0.00 0.00 50 1011.9
20260509121446 70 56 12.0 19.0 0.00 0.00 0.00 50 1011.8
20260509120946 72 27 12.0 24.0 0.00 0.00 0.00 48 1011.7
20260509120446 72 39 11.0 23.0 0.00 0.00 0.00 48 1011.8
20260509115946 72 27 9.0 21.0 0.00 0.00 0.00 48 1011.7
20260509115446 73 25 10.0 17.0 0.00 0.00 0.00 49 1011.8
20260509114946 71 66 11.0 19.0 0.00 0.00 0.00 49 1011.8
20260509114446 71 49 11.0 20.0 0.00 0.00 0.00 50 1011.9
20260509113946 71 19 11.0 21.0 0.00 0.00 0.00 49 1011.9
20260509113446 72 59 10.0 18.0 0.00 0.00 0.00 49 1011.9
20260509112946 72 16 11.0 20.0 0.00 0.00 0.00 49 1012.0
20260509112446 72 34 10.0 18.0 0.00 0.00 0.00 49 1012.1
20260509111947 72 75 9.0 19.0 0.00 0.00 0.00 49 1012.2
20260509111446 72 10 8.0 15.0 0.00 0.00 0.00 49 1012.1
20260509110946 72 57 8.0 18.0 0.00 0.00 0.00 51 1012.3
20260509110446 71 63 9.0 16.0 0.00 0.00 0.00 52 1012.3
20260509105946 71 48 10.0 18.0 0.00 0.00 0.00 52 1012.4
20260509105446 70 72 10.0 16.0 0.00 0.00 0.00 53 1012.4
20260509104946 70 81 9.0 17.0 0.00 0.00 0.00 53 1012.4
20260509104446 70 94 9.0 19.0 0.00 0.00 0.00 53 1012.5
20260509103946 70 75 9.0 16.0 0.00 0.00 0.00 53 1012.5
20260509103447 69 53 9.0 16.0 0.00 0.00 0.00 55 1012.5
20260509102946 69 91 7.0 16.0 0.00 0.00 0.00 55 1012.5
20260509102446 69 51 7.0 15.0 0.00 0.00 0.00 54 1012.6
20260509101946 69 50 8.0 13.0 0.00 0.00 0.00 56 1012.6
20260509101446 68 56 9.0 16.0 0.00 0.00 0.00 57 1012.7
20260509100947 68 79 8.0 12.0 0.00 0.00 0.00 56 1012.7
20260509100447 68 70 8.0 13.0 0.00 0.00 0.00 57 1012.7
20260509095947 68 66 7.0 13.0 0.00 0.00 0.00 57 1012.7
20260509095447 68 66 6.0 14.0 0.00 0.00 0.00 58 1012.8
20260509094947 66 64 6.0 14.0 0.00 0.00 0.00 60 1012.8
20260509094447 66 83 6.0 15.0 0.00 0.00 0.00 60 1012.8
20260509093946 66 122 6.0 11.0 0.00 0.00 0.00 61 1012.8